Weather History for Torrington, WY

Change the Weather History Date:

Tuesday, December 18, 2012

  Actual Average Record
Temperature  
Mean Temperature 35 °F 26 °F  
Max Temperature 41 °F 39 °F 62 °F (2013)
Min Temperature 28 °F 14 °F -6 °F (1998)
Degree Days  
Heating Degree Days 30 39  
Month to date heating degree days 530 674  
Since 1 July heating degree days 1873 2257  
Cooling Degree Days 0 0  
Month to date cooling degree days 0 0  
Year to date cooling degree days 1021 678  
Moisture  
Dew Point 8 °F    
Average Humidity 41    
Maximum Humidity 63    
Minimum Humidity 19    
Precipitation  
Precipitation 0.00 in 0.01 in 0.01 in (2001)
Month to date precipitation T 0.23  
Year to date precipitation 7.00 14.07  
Sea Level Pressure  
Sea Level Pressure 29.72 in    
Wind  
Wind Speed 12 mph (WNW)    
Max Wind Speed 26 mph    
Max Gust Speed 33 mph    
Visibility 10 miles    
Events      
T = Trace of Precipitation, MM = Missing Value Source: NWS Daily Summary

Daily Weather History Graph

Daily Weather History Graph

Search for Another Location

Airport:

Trip Planner

Search our weather history database for the weather conditions in past years. The results will help you decide how hot, cold, wet, or windy it might be!

Date:

Astronomy

Dec. 18, 2012 Rise Set
Actual Time 7:20 AM MST 4:26 PM MST
Civil Twilight 6:48 AM MST 4:58 PM MST
Nautical Twilight 6:13 AM MST 5:34 PM MST
Astronomical Twilight 5:38 AM MST 6:08 PM MST
Moon 10:55 AM MST (12/18) 11:01 PM MST (12/18)
Length of Visible Light 10h 10m
Length of Day
9h 06m
Waxing Crescent, 35% of the Moon is Illuminated
Dec 18
Waxing Crescent
Dec 19
First Quarter
Dec 28
Full
Jan 4
Last Quarter
Jan 11
New

Hourly Weather History & Observations

Time (MST) Temp. Windchill Dew Point Humidity Pressure Visibility Wind Dir Wind Speed Gust Speed Precip Events Conditions
12:53 AM 36.0 °F 25.3 °F 15.1 °F 43% 29.57 in 10.0 mi West 19.6 mph 26.5 mph N/A   Clear
1:53 AM 37.0 °F 25.9 °F 10.9 °F 34% 29.59 in 10.0 mi West 23.0 mph 33.4 mph N/A   Clear
2:53 AM 34.0 °F 24.6 °F 10.9 °F 38% 29.62 in 10.0 mi West 13.8 mph - N/A   Clear
3:53 AM 34.0 °F 23.4 °F 12.0 °F 40% 29.63 in 10.0 mi West 17.3 mph 26.5 mph N/A   Clear
4:53 AM 34.0 °F 22.7 °F 12.0 °F 40% 29.67 in 10.0 mi West 19.6 mph 28.8 mph N/A   Clear
5:53 AM 33.1 °F 21.9 °F 10.0 °F 38% 29.68 in 10.0 mi WNW 18.4 mph 27.6 mph N/A   Clear
6:53 AM 30.9 °F 19.8 °F 10.9 °F 43% 29.71 in 10.0 mi West 16.1 mph - N/A   Clear
7:53 AM 30.0 °F 21.1 °F 12.0 °F 47% 29.75 in 10.0 mi West 10.4 mph - N/A   Clear
8:53 AM 32.0 °F - 12.0 °F 44% 29.75 in 10.0 mi Calm Calm - N/A   Clear
9:53 AM 37.0 °F 26.7 °F 8.1 °F 30% 29.75 in 10.0 mi West 19.6 mph 26.5 mph N/A   Clear
10:53 AM 39.0 °F 29.3 °F 3.9 °F 23% 29.74 in 10.0 mi West 19.6 mph 27.6 mph N/A   Clear
12:53 PM 39.9 °F 30.2 °F -0.9 °F 18% 29.70 in 10.0 mi West 20.7 mph 31.1 mph N/A   Clear
1:53 PM 39.0 °F 29.0 °F -0.0 °F 19% 29.69 in 10.0 mi West 20.7 mph 28.8 mph N/A   Clear
2:53 PM 37.9 °F 26.8 °F 1.0 °F 21% 29.71 in 10.0 mi West 24.2 mph 29.9 mph N/A   Clear
3:53 PM 36.0 °F 27.1 °F 1.9 °F 24% 29.72 in 10.0 mi West 13.8 mph - N/A   Overcast
4:53 PM 34.0 °F 25.0 °F 1.0 °F 25% 29.73 in 10.0 mi WNW 12.7 mph - N/A   Overcast
5:53 PM 33.1 °F 30.0 °F 3.9 °F 29% 29.76 in 10.0 mi NW 3.5 mph - N/A   Overcast
6:53 PM 30.9 °F 26.2 °F 5.0 °F 33% 29.80 in 10.0 mi WNW 4.6 mph - N/A   Overcast
7:53 PM 30.0 °F 25.2 °F 6.1 °F 36% 29.81 in 10.0 mi North 4.6 mph - N/A   Overcast
8:53 PM 30.0 °F - 6.1 °F 36% 29.82 in 10.0 mi Calm Calm - N/A   Overcast
9:53 PM 30.9 °F 24.3 °F 12.9 °F 47% 29.82 in 10.0 mi North 6.9 mph - N/A   Overcast
10:53 PM 28.9 °F - 17.1 °F 61% 29.83 in 10.0 mi Calm Calm - N/A   Overcast
11:53 PM 28.0 °F 20.0 °F 15.1 °F 58% 29.81 in 10.0 mi NNE 8.1 mph - N/A   Overcast